EW6143 Weather Reports


time (UTC)temp
C
wind
direction
speed
KPH
gust
KPH
rain 1hr
cm
rain 24hr
cm
rain mn
cm
humidity
%
barometer
mb
20260502203028 25 235 4.8 14.5 0.00 0.00 0.00 30 1019.9
20260502201533 25 169 3.2 12.9 0.00 0.00 0.00 31 1020.2
20260502200027 25 210 9.7 16.1 0.00 0.00 0.00 31 1020.5
20260502194529 25 14 3.2 14.5 0.00 0.00 0.00 31 1020.5
20260502193029 25 148 3.2 12.9 0.00 0.00 0.00 31 1020.7
20260502191529 25 147 6.4 12.9 0.00 0.00 0.00 30 1020.8
20260502190035 25 90 1.6 16.1 0.00 0.00 0.00 30 1021.0
20260502184536 23 88 3.2 9.7 0.00 0.00 0.00 32 1021.2
20260502183031 24 153 4.8 14.5 0.00 0.00 0.00 30 1021.4
20260502181539 24 89 3.2 11.3 0.00 0.00 0.00 32 1021.6
20260502163027 22 81 6.4 14.5 0.00 0.00 0.00 33 1022.3
20260502161528 22 195 1.6 14.5 0.00 0.00 0.00 35 1022.3
20260502151534 20 74 1.6 9.7 0.00 0.00 0.00 43 1022.0
20260502123033 10 0 0.0 0.0 0.00 0.00 0.00 87 1020.8
20260502121527 9 0 0.0 0.0 0.00 0.00 0.00 86 1020.5
20260502114528 9 0 0.0 0.0 0.00 0.00 0.00 86 1020.0
20260502113032 9 0 0.0 0.0 0.00 0.00 0.00 85 1019.8
20260502111529 9 0 0.0 0.0 0.00 0.00 0.00 85 1019.6
20260502110029 8 0 0.0 0.0 0.00 0.00 0.00 85 1019.6
20260502104527 8 0 0.0 0.0 0.00 0.00 0.00 84 1019.3
20260502103030 9 0 0.0 0.0 0.00 0.00 0.00 84 1019.2
20260502101540 9 0 0.0 0.0 0.00 0.00 0.00 84 1019.1
20260502091528 10 0 0.0 0.0 0.00 0.00 0.00 84 1019.1
20260502071529 11 0 0.0 0.0 0.00 0.00 0.00 82 1018.9
20260502070028 11 0 0.0 0.0 0.00 0.00 0.00 82 1019.0
20260502064526 11 0 0.0 0.0 0.00 0.00 0.00 81 1019.3
20260502063031 11 0 0.0 0.0 0.00 0.00 0.00 81 1019.3
20260502061529 11 0 0.0 0.0 0.00 0.00 0.00 81 1019.2
20260502060027 12 0 0.0 0.0 0.00 0.00 0.00 81 1019.1
20260502054528 12 0 0.0 0.0 0.00 0.00 0.00 80 1019.2
20260502053030 12 0 0.0 0.0 0.00 0.00 0.00 80 1019.1
20260502051529 12 0 0.0 0.0 0.00 0.00 0.00 79 1019.2
20260502050037 13 0 0.0 0.0 0.00 0.00 0.00 78 1019.1
20260502044531 13 0 0.0 0.0 0.00 0.00 0.00 77 1019.0
20260502043027 13 0 0.0 0.0 0.00 0.00 0.00 76 1019.1
20260502041537 13 0 0.0 0.0 0.00 0.00 0.00 76 1018.8
20260502040026 14 0 0.0 0.0 0.00 0.00 0.00 75 1018.9
20260502034528 14 0 0.0 0.0 0.00 0.00 0.00 74 1018.9
20260502033031 15 0 0.0 0.0 0.00 0.00 0.00 74 1018.9
20260502031530 15 0 0.0 0.0 0.00 0.00 0.00 72 1018.7
20260502030030 15 0 0.0 0.0 0.00 0.00 0.00 72 1018.6
20260502024529 15 0 0.0 0.0 0.00 0.00 0.00 72 1018.7
20260502023029 15 0 0.0 0.0 0.00 0.00 0.00 71 1018.5
20260502021527 15 0 0.0 0.0 0.00 0.00 0.00 69 1018.3
20260502020030 16 0 0.0 4.8 0.00 0.00 0.00 68 1018.0
20260502014530 16 279 1.6 4.8 0.00 0.00 0.00 68 1017.6
20260502013029 16 0 0.0 3.2 0.00 0.00 0.00 67 1017.3
20260502011527 16 0 0.0 3.2 0.00 0.00 0.00 67 1017.1
20260502010026 16 278 1.6 4.8 0.00 0.00 0.00 66 1016.9
20260502004530 16 0 0.0 3.2 0.00 0.00 0.00 66 1016.9
20260502003027 17 0 1.6 4.8 0.00 0.00 0.00 63 1016.7
20260502001528 17 0 0.0 4.8 0.00 0.00 0.00 62 1016.5
20260502000029 17 257 3.2 6.4 0.00 0.00 0.00 63 1016.3
20260501234528 17 265 3.2 9.7 0.00 0.00 0.00 62 1016.1
20260501233028 17 225 4.8 12.9 0.00 0.00 0.00 60 1016.0
20260501231546 17 181 4.8 11.3 0.00 0.00 0.00 59 1015.8
20260501230027 17 234 1.6 11.3 0.00 0.00 0.00 59 1015.6
20260501224527 17 294 3.2 9.7 0.00 0.00 0.00 59 1015.6
20260501223039 17 236 3.2 14.5 0.00 0.00 0.00 58 1015.5
20260501221529 17 188 4.8 14.5 0.00 0.00 0.00 57 1015.6
20260501220029 17 221 6.4 14.5 0.00 0.00 0.00 56 1015.7
20260501214530 17 234 8.0 19.3 0.00 0.00 0.00 56 1015.5
20260501213033 17 175 9.7 24.1 0.00 0.00 0.00 55 1015.7
20260501211527 17 211 9.7 19.3 0.00 0.00 0.00 55 1015.6
20260501210033 17 110 8.0 20.9 0.00 0.00 0.00 56 1016.0
20260501204533 17 232 9.7 22.5 0.00 0.00 0.00 55 1016.2